Terminal Aerodrome Forecast
Issued by NWS

Home | Current Version | Previous Version | Text Only | Print | Product List | Glossary On
Versions: 1 2 3 4 5 6 7 8 9 10 11 12 13 14 15 16 17 18 19 20 21 22 23
453
FTUS42 KTAE 212019 AAB
TAFECP
TAF AMD
KECP 212019Z 2120/2218 10010G15KT 3SM RA BR FEW007 SCT013 OVC019
      TEMPO 2120/2121 VRB15G25KT 2SM +TSRA BKN025CB
     FM220400 10006KT 3SM RA BR OVC007
     FM221100 08007KT P6SM VCSH OVC007
     FM221600 06008KT P6SM BKN015=

USA.gov is the U.S. government's official web portal to all federal, state and local government web resources and services.